Retour au catalogue

SL-24 DEB

ActifSSO
NORAD 36601·DEBRIS·🇷🇺 Russia

Lancé Jun 15, 2010 depuis Dombarovsky

Loading…

Prochains Passages (prochaines 24 heures)

TLE

FraisSource: Space-Track

Époque: Sep 14, 2026, 12:23 UTC

1 36601U 10028D   26257.51630742  .00000307  00000-0  86816-4 0  9990
2 36601  98.2967  97.3699 0018227 101.3728 258.9517 14.52015324858818

Suivez SL-24 DEB en temps réel avec AllMySat

Download on the App Store